DW8785 Weather Reports


time (UTC)temp
C
wind
direction
speed
KPH
gust
KPH
rain 1hr
cm
rain 24hr
cm
rain mn
cm
humidity
%
barometer
mb
20260906203004 22 133 0.0 0.0 0.00 0.00 0.00 69 1018.4
20260906201615 22 131 0.0 0.0 0.00 0.00 0.00 69 1018.7
20260906200054 22 131 0.0 0.0 0.00 0.00 0.00 70 1018.6
20260906194552 22 124 0.0 0.0 0.00 0.00 0.00 69 1018.6
20260906193046 22 109 0.0 0.0 0.00 0.00 0.00 70 1018.6
20260906191542 22 106 3.2 0.0 0.00 0.00 0.00 69 1018.7
20260906190043 22 102 3.2 0.0 0.00 0.00 0.00 69 1018.4
20260906184534 22 82 4.8 0.0 0.00 0.00 0.00 70 1018.2
20260906183045 22 75 3.2 0.0 0.00 0.00 0.00 69 1018.2
20260906181525 22 66 3.2 0.0 0.00 0.00 0.00 69 1018.0
20260906180022 22 62 4.8 0.0 0.00 0.00 0.00 68 1017.9
20260906174517 22 62 4.8 0.0 0.00 0.00 0.00 67 1017.8
20260906173014 22 66 6.4 0.0 0.00 0.00 0.00 67 1017.8
20260906171517 22 51 8.0 0.0 0.00 0.00 0.00 66 1017.6
20260906170005 23 49 6.4 0.0 0.00 0.00 0.00 65 1017.6
20260906164502 23 58 4.8 0.0 0.00 0.00 0.00 65 1017.6
20260906163101 23 42 0.0 0.0 0.00 0.00 0.00 63 1017.5
20260906161559 24 41 3.2 0.0 0.00 0.00 0.00 62 1017.4
20260906160048 25 11 1.6 0.0 0.00 0.00 0.00 60 1017.2
20260906154544 25 25 3.2 0.0 0.00 0.00 0.00 61 1017.2
20260906153039 25 34 6.4 0.0 0.00 0.00 0.00 61 1017.2
20260906151537 25 47 6.4 0.0 0.00 0.00 0.00 60 1016.9
20260906150029 25 42 4.8 0.0 0.00 0.00 0.00 59 1017.0
20260906144527 26 27 4.8 0.0 0.00 0.00 0.00 59 1016.9
20260906143020 25 64 11.3 0.0 0.00 0.00 0.00 59 1016.9
20260906141521 26 37 6.4 0.0 0.00 0.00 0.00 57 1016.8
20260906140024 26 59 6.4 0.0 0.00 0.00 0.00 57 1016.8
20260906134507 26 35 4.8 0.0 0.00 0.00 0.00 57 1016.9
20260906133003 26 35 3.2 0.0 0.00 0.00 0.00 56 1017.0
20260906131605 26 106 8.0 0.0 0.00 0.00 0.00 57 1017.1
20260906130104 26 97 4.8 0.0 0.00 0.00 0.00 57 1017.1
20260906124550 26 6 3.2 0.0 0.00 0.00 0.00 55 1017.1
20260906123044 26 346 4.8 0.0 0.00 0.00 0.00 56 1017.0
20260906121544 26 79 4.8 0.0 0.00 0.00 0.00 56 1016.9
20260906120035 25 51 4.8 0.0 0.00 0.00 0.00 57 1016.9
20260906114540 25 62 3.2 0.0 0.00 0.00 0.00 58 1017.2
20260906113042 25 6 6.4 0.0 0.00 0.00 0.00 58 1017.2
20260906111523 25 49 6.4 0.0 0.00 0.00 0.00 57 1017.2
20260906110019 25 66 8.0 0.0 0.00 0.00 0.00 59 1017.1
20260906104522 25 25 6.4 0.0 0.00 0.00 0.00 57 1017.3
20260906103009 25 103 6.4 0.0 0.00 0.00 0.00 60 1017.3
20260906101505 24 45 6.4 0.0 0.00 0.00 0.00 63 1017.4
20260906100101 24 54 6.4 0.0 0.00 0.00 0.00 63 1017.3
20260906094558 24 37 8.0 0.0 0.00 0.00 0.00 65 1017.4
20260906093051 24 51 6.4 0.0 0.00 0.00 0.00 63 1017.3
20260906091548 24 45 8.0 0.0 0.00 0.00 0.00 66 1017.2
20260906090043 23 75 6.4 0.0 0.00 0.00 0.00 67 1017.2
20260906084538 23 65 4.8 0.0 0.00 0.00 0.00 68 1017.1
20260906083034 23 38 6.4 0.0 0.00 0.00 0.00 64 1017.1
20260906081541 22 44 8.0 0.0 0.00 0.00 0.00 73 1017.2
20260906080024 22 48 6.4 0.0 0.00 0.00 0.00 78 1017.3
20260906074522 22 48 6.4 0.0 0.00 0.00 0.00 83 1017.2
20260906073016 21 47 3.2 0.0 0.00 0.00 0.00 85 1016.8
20260906071511 21 72 4.8 0.0 0.00 0.00 0.00 93 1016.6
20260906070007 21 56 6.4 0.0 0.00 0.00 0.00 93 1016.6
20260906064505 21 64 4.8 0.0 0.00 0.00 0.00 96 1016.7
20260906063059 21 51 0.0 0.0 0.00 0.00 0.00 97 1016.6
20260906061559 20 58 0.0 0.0 0.00 0.00 0.00 98 1016.5
20260906060049 20 32 0.0 0.0 0.00 0.00 0.00 98 1016.4
20260906054545 20 35 0.0 0.0 0.00 0.00 0.00 97 1016.3
20260906053041 20 38 0.0 0.0 0.00 0.00 0.00 97 1016.3
20260906051543 20 32 0.0 0.0 0.00 0.00 0.00 94 1015.8
20260906050043 20 332 0.0 0.0 0.00 0.00 0.00 88 1015.8
20260906044535 20 347 6.4 0.0 0.00 0.00 0.00 85 1015.8
20260906043024 20 7 6.4 0.0 0.00 0.00 0.00 81 1015.7
20260906041520 20 333 6.4 0.0 0.00 0.00 0.00 69 1015.3
20260906040023 21 339 0.0 0.0 0.00 0.00 0.00 62 1015.2
20260906034515 21 333 0.0 0.0 0.00 0.00 0.00 61 1014.9
20260906033017 22 340 0.0 0.0 0.00 0.00 0.00 60 1014.8
20260906031502 22 340 0.0 0.0 0.00 0.00 0.00 60 1014.7
20260906030058 22 342 0.0 0.0 0.00 0.00 0.00 58 1014.8
20260906024553 22 357 1.6 0.0 0.00 0.00 0.00 56 1014.5
20260906023052 22 333 6.4 0.0 0.00 0.00 0.00 55 1014.5
20260906021548 22 344 4.8 0.0 0.00 0.00 0.00 54 1014.3
20260906020040 22 320 6.4 0.0 0.00 0.00 0.00 54 1014.3
20260906014538 23 350 9.7 0.0 0.00 0.00 0.00 53 1014.3
20260906013033 23 333 4.8 0.0 0.00 0.00 0.00 53 1014.2
20260906011535 23 322 0.0 0.0 0.00 0.00 0.00 51 1014.2
20260906010025 23 30 0.0 0.0 0.00 0.00 0.00 49 1014.2
20260906004520 23 31 0.0 0.0 0.00 0.00 0.00 50 1014.2
20260906003015 23 34 0.0 0.0 0.00 0.00 0.00 48 1014.2
20260906001511 23 37 0.0 0.0 0.00 0.00 0.00 46 1014.4
20260906000007 25 28 0.0 0.0 0.00 0.00 0.00 41 1014.0
20260905234501 25 357 0.0 0.0 0.00 0.00 0.00 41 1013.9
20260905233058 25 359 0.0 0.0 0.00 0.00 0.00 39 1014.0
20260905231554 25 359 0.0 0.0 0.00 0.00 0.00 40 1014.2
20260905230053 25 359 1.6 0.0 0.00 0.00 0.00 40 1014.1
20260905224600 25 359 3.2 0.0 0.00 0.00 0.00 40 1014.1
20260905223042 25 357 4.8 0.0 0.00 0.00 0.00 42 1014.2
20260905221547 23 357 3.2 0.0 0.00 0.00 0.00 49 1014.1
20260905220038 24 359 8.0 0.0 0.00 0.00 0.00 48 1013.9
20260905214527 24 359 11.3 0.0 0.00 0.00 0.00 44 1013.9
20260905213024 24 359 12.9 0.0 0.00 0.00 0.00 47 1014.0
20260905211520 24 350 14.5 0.0 0.00 0.00 0.00 50 1013.8
20260905210015 23 359 12.9 0.0 0.00 0.00 0.00 51 1013.9
20260905204517 23 189 12.9 0.0 0.00 0.00 0.00 53 1013.8